Miscellaneous Local Product
Issued by NWS Hastings, NE

Home | Current Version | Previous Version | Graphics & Text | Print | Product List | Glossary On
Versions: 1 2 3 4 5 6 7 8 9 10 11 12 13 14 15 16 17 18 19 20 21 22 23 24 25 26 27 28 29 30 31 32 33 34 35 36 37 38 39 40 41 42 43 44 45 46 47 48 49 50
000
AXUS43 KGID 242302
MISGRI

GID CWA HOURLY WEATHER ROUNDUP
NATIONAL WEATHER SERVICE HASTINGS NE
600 PM CDT SAT SEP 24 2016

NOTE: "FAIR" INDICATES FEW OR NO CLOUDS BELOW 12,000 FEET WITH NO
SIGNIFICANT WEATHER AND/OR OBSTRUCTIONS TO VISIBILITY.

...SOUTH CENTRAL NEBRASKA...

CITY           SKY/WX    TMP DP  RH WIND       PRES   REMARKS
GRAND ISLAND   MOSUNNY   73  64  73 SW7       29.91R
HASTINGS       CLOUDY    74  62  66 S8        29.92R
KEARNEY        SUNNY     79  45  29 W7        29.89R
ORD            SUNNY     79  45  29 CALM      29.88R
YORK           CLOUDY    72  66  83 SE10      29.90F
AURORA         CLOUDY    74  68  82 W6        29.90S
LEXINGTON      SUNNY     77  40  26 W5        29.92R
HOLDREGE       SUNNY     78  44  30 CALM      29.91R
HEBRON         CLOUDY    72  69  92 SE6       29.91F

...NEBRASKA PANHANDLE...

CITY           SKY/WX    TMP DP  RH WIND       PRES   REMARKS
CHADRON        SUNNY     59  40  49 W23G37    30.02R
ALLIANCE       PTSUNNY   64  40  41 NW22G30   29.99R
SCOTTSBLUFF    CLOUDY    65  41  41 NW18G26   30.03R
SIDNEY         MOSUNNY   69  32  25 NW10      30.02R

...WESTERN AND NORTH CENTRAL NEBRASKA...

CITY           SKY/WX    TMP DP  RH WIND       PRES   REMARKS
VALENTINE      SUNNY     74  34  23 W21G29    29.89R
AINSWORTH      SUNNY     75  39  27 W14       29.91R
ONEILL         SUNNY     78  39  24 W5        29.88S
BROKEN BOW     SUNNY     77  38  24 SW5       29.91R
IMPERIAL       SUNNY     74  33  22 NW3       29.95R
NORTH PLATTE   SUNNY     79  42  26 NW6       29.93R
MCCOOK         SUNNY     76  40  27 S6        29.92R

...EASTERN NEBRASKA...

CITY           SKY/WX    TMP DP  RH WIND       PRES   REMARKS
NORFOLK        CLOUDY    73  67  81 S6        29.89R
SO SIOUX CITY  CLOUDY    75  73  93 S8        29.88R
TEKAMAH        CLOUDY    73  71  93 S8        29.88R
COLUMBUS       CLOUDY    73  63  68 S12G21    29.91R
ALBION         PTSUNNY   74  63  68 S12       29.90R
OMAHA EPPLEY   LGT RAIN  73  70  90 S14       29.89F
OFFUTT AFB     LGT RAIN  71  71 100 S10       29.90S
MILLARD        LGT RAIN  73  71  95 SE10      29.89F
LINCOLN        CLOUDY    72  70  93 S6        29.92R
NEBRASKA CITY  LGT RAIN  70  67  90 S5        29.92F
BEATRICE       LGT RAIN  69  68  96 S8        29.93S
FALLS CITY     LGT RAIN  69  69 100 E8        29.91F

...NORTHERN KANSAS...

CITY           SKY/WX    TMP DP  RH WIND       PRES   REMARKS
GOODLAND       SUNNY     74  30  19 S8        29.95S
HILL CITY      SUNNY     78  49  35 CALM      29.92R
NORTON         CLEAR     79  36  21 CALM      29.91R
PHILLIPSBURG   SUNNY     79  50  36 SE6       29.91R
SMITH CENTER   SUNNY     75  59  57 S6        29.91S
HAYS           CLOUDY    75  57  53 S6        29.92R
CONCORDIA      CLOUDY    71  71 100 SE6       29.91F
SALINA         CLOUDY    71  68  90 CALM      29.89F
TOPEKA         LGT RAIN  76  68  76 NW16      29.91R



USA.gov is the U.S. government's official web portal to all federal, state and local government web resources and services.